SQ5DCP-1 Weather Reports


time (UTC)temp
C
wind
direction
speed
KPH
gust
KPH
rain 1hr
cm
rain 24hr
cm
rain mn
cm
humidity
%
barometer
mb
20260903214032 17 241 1.6 3.2 0.00 0.00 0.00 65 1016.5
20260903213530 17 267 0.0 4.8 0.00 0.00 0.00 65 1016.5
20260903213028 17 0.0 0.0 0.00 0.00 0.00 65 1016.5
20260903212526 17 237 0.0 3.2 0.00 0.00 0.00 65 1016.5
20260903212025 18 246 0.0 3.2 0.00 0.00 0.00 65 1016.6
20260903211523 18 0.0 0.0 0.00 0.00 0.00 65 1016.5
20260903211021 18 226 0.0 3.2 0.00 0.00 0.00 65 1016.5
20260903210519 18 238 1.6 4.8 0.00 0.00 0.00 65 1016.7
20260903210017 18 262 1.6 4.8 0.00 0.00 0.00 65 1016.7
20260903205516 18 0.0 0.0 0.00 0.00 0.00 65 1016.6
20260903205034 18 260 1.6 3.2 0.00 0.00 0.00 65 1016.7
20260903204532 18 280 1.6 4.8 0.00 0.00 0.00 65 1016.7
20260903204030 18 249 1.6 3.2 0.00 0.00 0.00 65 1016.6
20260903203528 18 268 3.2 6.4 0.00 0.00 0.00 65 1016.6
20260903203026 18 267 1.6 6.4 0.00 0.00 0.00 65 1016.7
20260903202525 18 274 1.6 6.4 0.00 0.00 0.00 65 1016.7
20260903202022 18 285 3.2 6.4 0.00 0.00 0.00 65 1016.7
20260903201521 18 277 3.2 6.4 0.00 0.00 0.00 65 1016.6
20260903201019 18 276 3.2 11.3 0.00 0.00 0.00 64 1016.6
20260903200517 18 274 3.2 11.3 0.00 0.00 0.00 64 1016.7
20260903200035 18 272 3.2 6.4 0.00 0.00 0.00 64 1016.6
20260903195533 18 258 3.2 9.7 0.00 0.00 0.00 64 1016.7
20260903195032 18 257 4.8 6.4 0.00 0.00 0.00 64 1016.7
20260903194530 18 252 3.2 12.9 0.00 0.00 0.00 64 1016.7
20260903194028 18 244 3.2 4.8 0.00 0.00 0.00 64 1016.7
20260903193526 18 248 3.2 4.8 0.00 0.00 0.00 64 1016.8
20260903193024 18 243 3.2 6.4 0.00 0.00 0.00 64 1016.8
20260903192522 18 247 1.6 4.8 0.00 0.00 0.00 64 1016.8
20260903192020 18 249 3.2 6.4 0.00 0.00 0.00 64 1016.8
20260903191518 18 256 3.2 6.4 0.00 0.00 0.00 65 1016.9
20260903191049 18 245 1.6 6.4 0.00 0.00 0.00 64 1017.0
20260903191016 18 245 1.6 6.4 0.00 0.00 0.00 64 1017.0
20260903190534 18 238 1.6 4.8 0.00 0.00 0.00 64 1017.0
20260903190033 18 249 0.0 3.2 0.00 0.00 0.00 64 1017.0
20260903185531 18 0.0 0.0 0.00 0.00 0.00 64 1017.0
20260903185029 18 0.0 0.0 0.00 0.00 0.00 63 1016.9
20260903184527 18 246 0.0 3.2 0.00 0.00 0.00 63 1017.0
20260903184025 19 0.0 0.0 0.00 0.00 0.00 63 1016.9
20260903183523 19 0.0 0.0 0.00 0.00 0.00 62 1017.0
20260903183021 19 0.0 0.0 0.00 0.00 0.00 62 1017.0
20260903182519 19 0.0 0.0 0.00 0.00 0.00 62 1017.0
20260903182018 19 0.0 0.0 0.00 0.00 0.00 61 1017.0
20260903181515 20 0.0 0.0 0.00 0.00 0.00 61 1017.0
20260903181034 20 0.0 0.0 0.00 0.00 0.00 61 1017.0
20260903180532 20 0.0 0.0 0.00 0.00 0.00 60 1017.0
20260903180030 20 0.0 0.0 0.00 0.00 0.00 60 1016.9
20260903175528 20 0.0 0.0 0.00 0.00 0.00 60 1016.9
20260903175026 20 0.0 0.0 0.00 0.00 0.00 60 1016.9
20260903174525 20 0.0 0.0 0.00 0.00 0.00 59 1016.9
20260903174022 20 0.0 0.0 0.00 0.00 0.00 59 1016.9
20260903173521 20 0.0 0.0 0.00 0.00 0.00 59 1016.8
20260903173019 20 0.0 0.0 0.00 0.00 0.00 59 1016.7
20260903172517 20 0.0 0.0 0.00 0.00 0.00 58 1016.7
20260903172036 21 0.0 0.0 0.00 0.00 0.00 58 1016.7
20260903171533 21 0.0 0.0 0.00 0.00 0.00 57 1016.7
20260903171032 21 0.0 0.0 0.00 0.00 0.00 57 1016.7
20260903170530 21 0.0 0.0 0.00 0.00 0.00 56 1016.7
20260903170028 21 282 1.6 4.8 0.00 0.00 0.00 55 1016.6
20260903165526 21 288 3.2 9.7 0.00 0.00 0.00 55 1016.7
20260903165024 21 285 3.2 6.4 0.00 0.00 0.00 54 1016.7
20260903164522 21 279 4.8 12.9 0.00 0.00 0.00 54 1016.6
20260903164020 21 292 6.4 11.3 0.00 0.00 0.00 54 1016.7
20260903163518 21 287 4.8 9.7 0.00 0.00 0.00 54 1016.6
20260903163048 21 280 3.2 4.8 0.00 0.00 0.00 54 1016.6
20260903163016 21 280 3.2 4.8 0.00 0.00 0.00 54 1016.6
20260903162535 21 292 0.0 4.8 0.00 0.00 0.00 54 1016.6
20260903162033 21 0.0 0.0 0.00 0.00 0.00 53 1016.6
20260903161531 21 0.0 0.0 0.00 0.00 0.00 53 1016.6
20260903161029 21 288 1.6 4.8 0.00 0.00 0.00 53 1016.7
20260903160527 21 312 0.0 4.8 0.00 0.00 0.00 52 1016.6
20260903160026 22 286 4.8 11.3 0.00 0.00 0.00 52 1016.7
20260903155524 22 288 4.8 11.3 0.00 0.00 0.00 52 1016.7
20260903155022 22 291 4.8 9.7 0.00 0.00 0.00 52 1016.7
20260903154520 22 297 4.8 9.7 0.00 0.00 0.00 51 1016.8
20260903154018 22 298 6.4 12.9 0.00 0.00 0.00 51 1016.8
20260903153516 22 291 6.4 14.5 0.00 0.00 0.00 50 1016.8
20260903153034 22 280 6.4 12.9 0.00 0.00 0.00 51 1016.8
20260903152532 22 286 4.8 12.9 0.00 0.00 0.00 51 1016.9
20260903152031 22 287 6.4 14.5 0.00 0.00 0.00 51 1017.0
20260903151529 22 288 4.8 9.7 0.00 0.00 0.00 51 1017.0
20260903151027 22 287 4.8 12.9 0.00 0.00 0.00 50 1016.9
20260903150525 22 304 3.2 11.3 0.00 0.00 0.00 50 1017.1
20260903150023 22 294 3.2 12.9 0.00 0.00 0.00 51 1017.1
20260903145522 22 291 3.2 6.4 0.00 0.00 0.00 50 1017.2
20260903145020 22 307 6.4 12.9 0.00 0.00 0.00 50 1017.2
20260903144518 22 308 4.8 9.7 0.00 0.00 0.00 50 1017.2
20260903144016 22 300 3.2 9.7 0.00 0.00 0.00 50 1017.2
20260903143534 22 326 3.2 12.9 0.00 0.00 0.00 49 1017.2
20260903143033 22 307 6.4 14.5 0.00 0.00 0.00 48 1017.2
20260903142530 22 291 6.4 12.9 0.00 0.00 0.00 49 1017.2
20260903142028 22 279 6.4 16.1 0.00 0.00 0.00 49 1017.3
20260903141527 22 276 6.4 14.5 0.00 0.00 0.00 50 1017.3
20260903141024 22 291 3.2 9.7 0.00 0.00 0.00 51 1017.4
20260903140523 22 306 6.4 12.9 0.00 0.00 0.00 50 1017.3
20260903140021 22 286 6.4 11.3 0.00 0.00 0.00 50 1017.4
20260903135519 22 287 8.0 16.1 0.00 0.00 0.00 50 1017.5
20260903135049 22 314 6.4 12.9 0.00 0.00 0.00 50 1017.4
20260903135017 22 314 6.4 12.9 0.00 0.00 0.00 50 1017.4
20260903134535 22 282 4.8 12.9 0.00 0.00 0.00 51 1017.4
20260903134033 22 297 4.8 12.9 0.00 0.00 0.00 51 1017.4
20260903133531 22 332 0.0 9.7 0.00 0.00 0.00 51 1017.4
20260903133030 22 281 4.8 11.3 0.00 0.00 0.00 50 1017.5
20260903132527 22 294 6.4 17.7 0.00 0.00 0.00 49 1017.5
20260903132025 22 275 6.4 12.9 0.00 0.00 0.00 50 1017.6
20260903131524 22 280 6.4 17.7 0.00 0.00 0.00 49 1017.6
20260903131022 22 273 9.7 14.5 0.00 0.00 0.00 49 1017.7
20260903130520 22 291 6.4 20.9 0.00 0.00 0.00 49 1017.6
20260903130018 22 289 11.3 22.5 0.00 0.00 0.00 49 1017.7
20260903125517 22 281 8.0 22.5 0.00 0.00 0.00 51 1017.8
20260903125035 22 292 4.8 16.1 0.00 0.00 0.00 52 1017.7
20260903124533 22 324 6.4 12.9 0.00 0.00 0.00 51 1017.9
20260903124031 22 285 6.4 17.7 0.00 0.00 0.00 53 1017.9
20260903123529 22 298 6.4 14.5 0.00 0.00 0.00 53 1017.9
20260903123027 21 283 6.4 12.9 0.00 0.00 0.00 53 1018.0
20260903122525 21 298 6.4 12.9 0.00 0.00 0.00 52 1018.0
20260903122023 22 289 4.8 11.3 0.00 0.00 0.00 52 1018.0
20260903121521 22 318 1.6 11.3 0.00 0.00 0.00 54 1018.0
20260903121019 21 294 3.2 9.7 0.00 0.00 0.00 54 1018.1
20260903120518 22 286 4.8 16.1 0.00 0.00 0.00 54 1018.1
20260903120049 22 290 6.4 11.3 0.00 0.00 0.00 53 1018.1
20260903120016 22 290 6.4 11.3 0.00 0.00 0.00 53 1018.1
20260903115534 22 297 6.4 14.5 0.00 0.00 0.00 53 1018.2
20260903115032 22 323 6.4 12.9 0.00 0.00 0.00 52 1018.2
20260903114530 22 284 6.4 14.5 0.00 0.00 0.00 52 1018.2
20260903114028 22 307 6.4 20.9 0.00 0.00 0.00 52 1018.3
20260903113526 22 285 6.4 12.9 0.00 0.00 0.00 51 1018.4
20260903113024 22 312 8.0 14.5 0.00 0.00 0.00 51 1018.4
20260903112522 22 315 6.4 12.9 0.00 0.00 0.00 51 1018.4
20260903112020 22 267 6.4 16.1 0.00 0.00 0.00 52 1018.4
20260903111518 22 283 3.2 14.5 0.00 0.00 0.00 52 1018.5
20260903111016 22 287 8.0 20.9 0.00 0.00 0.00 52 1018.5
20260903110535 22 289 4.8 14.5 0.00 0.00 0.00 52 1018.5
20260903110033 22 275 6.4 16.1 0.00 0.00 0.00 52 1018.6
20260903105531 22 281 4.8 16.1 0.00 0.00 0.00 53 1018.7
20260903105029 22 283 9.7 16.1 0.00 0.00 0.00 53 1018.7
20260903104528 22 289 6.4 17.7 0.00 0.00 0.00 53 1018.9
20260903104026 22 0 4.8 14.5 0.00 0.00 0.00 53 1018.9
20260903103523 21 2 6.4 17.7 0.00 0.00 0.00 54 1019.0
20260903103022 22 316 9.7 20.9 0.00 0.00 0.00 52 1019.1
20260903102520 22 334 8.0 17.7 0.00 0.00 0.00 53 1019.0
20260903102018 21 297 8.0 16.1 0.00 0.00 0.00 54 1019.1
20260903101516 21 305 4.8 12.9 0.00 0.00 0.00 55 1019.1
20260903101034 21 302 4.8 9.7 0.00 0.00 0.00 56 1019.1
20260903100533 21 264 6.4 17.7 0.00 0.00 0.00 56 1019.1
20260903100031 21 280 8.0 17.7 0.00 0.00 0.00 55 1019.1
20260903095529 21 270 8.0 16.1 0.00 0.00 0.00 57 1019.2
20260903095027 21 297 6.4 16.1 0.00 0.00 0.00 58 1019.3
20260903094525 21 302 4.8 12.9 0.00 0.00 0.00 59 1019.3
20260903094023 21 304 4.8 12.9 0.00 0.00 0.00 58 1019.4
20260903093522 21 279 4.8 11.3 0.00 0.00 0.00 58 1019.4
20260903093020 21 281 6.4 14.5 0.00 0.00 0.00 59 1019.5
20260903092520 20 280 6.4 16.1 0.00 0.00 0.00 61 1019.4
20260903092048 20 297 4.8 6.4 0.00 0.00 0.00 59 1019.5
20260903092016 20 297 4.8 6.4 0.00 0.00 0.00 59 1019.5
20260903091535 20 288 8.0 22.5 0.00 0.00 0.00 60 1019.6
20260903091033 20 310 4.8 11.3 0.00 0.00 0.00 60 1019.5
20260903090531 20 283 4.8 11.3 0.00 0.00 0.00 61 1019.5
20260903090029 20 296 3.2 9.7 0.00 0.00 0.00 62 1019.5
20260903085528 20 308 4.8 12.9 0.00 0.00 0.00 63 1019.6
20260903085025 20 285 4.8 12.9 0.00 0.00 0.00 64 1019.6
20260903084523 19 313 4.8 14.5 0.00 0.00 0.00 63 1019.6
20260903084022 19 286 3.2 11.3 0.00 0.00 0.00 65 1019.7
20260903083520 19 289 4.8 9.7 0.00 0.00 0.00 65 1019.6
20260903083019 19 289 4.8 14.5 0.00 0.00 0.00 64 1019.7
20260903082516 18 289 6.4 16.1 0.00 0.00 0.00 67 1019.7
20260903082035 18 323 1.6 9.7 0.00 0.00 0.00 67 1019.6
20260903081532 18 341 6.4 14.5 0.00 0.00 0.00 67 1019.6
20260903081031 18 310 3.2 9.7 0.00 0.00 0.00 68 1019.6
20260903080529 18 301 8.0 14.5 0.00 0.00 0.00 68 1019.6
20260903080027 18 296 6.4 11.3 0.00 0.00 0.00 69 1019.6
20260903075525 18 279 8.0 14.5 0.00 0.00 0.00 71 1019.6
20260903075023 17 279 6.4 12.9 0.00 0.00 0.00 72 1019.5
20260903074522 17 284 4.8 11.3 0.00 0.00 0.00 71 1019.5
20260903074020 17 295 4.8 11.3 0.00 0.00 0.00 73 1019.4
20260903073518 17 281 6.4 12.9 0.00 0.00 0.00 73 1019.4
20260903073048 17 284 6.4 12.9 0.00 0.00 0.00 73 1019.5
20260903073016 17 284 6.4 12.9 0.00 0.00 0.00 73 1019.5
20260903072535 17 280 3.2 11.3 0.00 0.00 0.00 74 1019.5
20260903072033 17 299 6.4 11.3 0.00 0.00 0.00 74 1019.6
20260903071531 16 299 8.0 16.1 0.00 0.00 0.00 75 1019.5
20260903071029 16 297 4.8 11.3 0.00 0.00 0.00 76 1019.5
20260903070527 16 283 4.8 11.3 0.00 0.00 0.00 77 1019.5
20260903070025 16 295 4.8 12.9 0.00 0.00 0.00 78 1019.4
20260903065523 16 270 4.8 12.9 0.00 0.00 0.00 79 1019.4
20260903065022 16 281 6.4 12.9 0.00 0.00 0.00 80 1019.5
20260903064520 16 290 4.8 14.5 0.00 0.00 0.00 80 1019.5
20260903064049 15 300 1.6 9.7 0.00 0.00 0.00 81 1019.5
20260903064018 15 300 1.6 9.7 0.00 0.00 0.00 81 1019.5
20260903063516 15 274 1.6 6.4 0.00 0.00 0.00 82 1019.5
20260903063034 15 293 1.6 6.4 0.00 0.00 0.00 82 1019.4
20260903062533 15 287 4.8 11.3 0.00 0.00 0.00 82 1019.5
20260903062030 15 280 4.8 11.3 0.00 0.00 0.00 83 1019.4
20260903061529 15 290 6.4 14.5 0.00 0.00 0.00 83 1019.5
20260903061027 15 278 4.8 11.3 0.00 0.00 0.00 84 1019.5
20260903060526 14 283 4.8 12.9 0.00 0.00 0.00 84 1019.5
20260903060023 14 280 4.8 12.9 0.00 0.00 0.00 84 1019.4
20260903055521 14 279 4.8 11.3 0.00 0.00 0.00 84 1019.4
20260903055020 13 282 4.8 9.7 0.00 0.00 0.00 84 1019.3
20260903054518 13 278 3.2 9.7 0.00 0.00 0.00 84 1019.3
20260903054048 13 281 3.2 6.4 0.00 0.00 0.00 84 1019.4
20260903054015 13 281 3.2 6.4 0.00 0.00 0.00 84 1019.4
20260903053534 13 272 4.8 9.7 0.00 0.00 0.00 84 1019.4
20260903053032 13 291 3.2 9.7 0.00 0.00 0.00 84 1019.4
20260903052530 13 291 3.2 9.7 0.00 0.00 0.00 84 1019.4
20260903052028 13 287 3.2 4.8 0.00 0.00 0.00 84 1019.4
20260903051526 13 284 4.8 11.3 0.00 0.00 0.00 84 1019.3
20260903051025 12 286 3.2 9.7 0.00 0.00 0.00 84 1019.3
20260903050523 12 278 3.2 6.4 0.00 0.00 0.00 84 1019.3
20260903050021 12 283 1.6 6.4 0.00 0.00 0.00 83 1019.4
20260903045520 12 286 1.6 4.8 0.00 0.00 0.00 83 1019.4
20260903045049 12 271 1.6 6.4 0.00 0.00 0.00 82 1019.4
20260903045017 12 271 1.6 6.4 0.00 0.00 0.00 82 1019.4
20260903044535 12 0.0 0.0 0.00 0.00 0.00 82 1019.3
20260903044034 12 0.0 0.0 0.00 0.00 0.00 82 1019.4
20260903043532 12 0.0 0.0 0.00 0.00 0.00 82 1019.4
20260903043030 12 0.0 0.0 0.00 0.00 0.00 82 1019.3
20260903042528 12 0.0 0.0 0.00 0.00 0.00 82 1019.4
20260903042026 12 0.0 0.0 0.00 0.00 0.00 81 1019.3
20260903041525 12 0.0 0.0 0.00 0.00 0.00 81 1019.3
20260903041022 12 0.0 0.0 0.00 0.00 0.00 81 1019.3
20260903040521 12 0.0 0.0 0.00 0.00 0.00 81 1019.3
20260903040019 12 0.0 0.0 0.00 0.00 0.00 81 1019.4
20260903035517 12 0.0 0.0 0.00 0.00 0.00 81 1019.4
20260903035035 12 0.0 0.0 0.00 0.00 0.00 81 1019.4
20260903034533 12 0.0 0.0 0.00 0.00 0.00 81 1019.5
20260903034031 12 0.0 0.0 0.00 0.00 0.00 81 1019.5
20260903033529 12 0.0 0.0 0.00 0.00 0.00 81 1019.4
20260903033028 12 0.0 0.0 0.00 0.00 0.00 81 1019.4
20260903032526 12 0.0 0.0 0.00 0.00 0.00 81 1019.3
20260903032024 12 0.0 0.0 0.00 0.00 0.00 81 1019.2
20260903031522 12 0.0 0.0 0.00 0.00 0.00 81 1019.4
20260903031020 12 0.0 0.0 0.00 0.00 0.00 81 1019.2
20260903030518 12 0.0 0.0 0.00 0.00 0.00 81 1019.3
20260903030049 12 0.0 0.0 0.00 0.00 0.00 81 1019.3
20260903030016 12 0.0 0.0 0.00 0.00 0.00 81 1019.3
20260903025535 12 0.0 0.0 0.00 0.00 0.00 81 1019.2
20260903025033 12 0.0 0.0 0.00 0.00 0.00 81 1019.3
20260903024531 12 0.0 0.0 0.00 0.00 0.00 81 1019.2
20260903024129 12 0.0 0.0 0.00 0.00 0.00 81 1019.3
20260903024029 12 0.0 0.0 0.00 0.00 0.00 81 1019.3
20260903023527 12 0.0 0.0 0.00 0.00 0.00 81 1019.3
20260903023025 12 0.0 0.0 0.00 0.00 0.00 81 1019.3
20260903022523 12 0.0 0.0 0.00 0.00 0.00 81 1019.4
20260903022022 12 0.0 0.0 0.00 0.00 0.00 81 1019.4
20260903021519 12 0.0 0.0 0.00 0.00 0.00 81 1019.4
20260903021132 12 0.0 0.0 0.00 0.00 0.00 81 1019.5
20260903021017 12 0.0 0.0 0.00 0.00 0.00 81 1019.5
20260903020516 13 0.0 0.0 0.00 0.00 0.00 81 1019.5
20260903020230 13 0.0 0.0 0.00 0.00 0.00 81 1019.5
20260903020034 13 0.0 0.0 0.00 0.00 0.00 81 1019.5
20260903015532 13 0.0 0.0 0.00 0.00 0.00 81 1019.5
20260903015030 13 0.0 0.0 0.00 0.00 0.00 81 1019.6
20260903014528 13 0.0 0.0 0.00 0.00 0.00 81 1019.6
20260903014026 13 0.0 0.0 0.00 0.00 0.00 81 1019.7
20260903013525 13 0.0 0.0 0.00 0.00 0.00 81 1019.6
20260903013023 13 0.0 0.0 0.00 0.00 0.00 80 1019.5
20260903012521 13 0.0 0.0 0.00 0.00 0.00 80 1019.6
20260903012019 13 0.0 0.0 0.00 0.00 0.00 80 1019.5
20260903011518 13 0.0 0.0 0.00 0.00 0.00 80 1019.6
20260903011046 13 0.0 0.0 0.00 0.00 0.00 80 1019.5
20260903011015 13 0.0 0.0 0.00 0.00 0.00 80 1019.5
20260903010534 13 0.0 0.0 0.00 0.00 0.00 80 1019.7
20260903010032 13 0.0 0.0 0.00 0.00 0.00 80 1019.6
20260903005530 13 0.0 0.0 0.00 0.00 0.00 80 1019.7
20260903005029 13 0.0 0.0 0.00 0.00 0.00 80 1019.7
20260903004526 13 0.0 0.0 0.00 0.00 0.00 80 1019.6
20260903004024 13 0.0 0.0 0.00 0.00 0.00 80 1019.6
20260903003522 13 0.0 0.0 0.00 0.00 0.00 80 1019.6
20260903003051 13 0.0 0.0 0.00 0.00 0.00 80 1019.6
20260903003020 13 0.0 0.0 0.00 0.00 0.00 80 1019.6
20260903002519 13 0.0 0.0 0.00 0.00 0.00 80 1019.6
20260903002017 13 0.0 0.0 0.00 0.00 0.00 80 1019.6
20260903001535 13 0.0 0.0 0.00 0.00 0.00 79 1019.6
20260903001033 13 0.0 0.0 0.00 0.00 0.00 79 1019.6
20260903000531 13 0.0 0.0 0.00 0.00 0.00 79 1019.7
20260903000029 13 0.0 0.0 0.00 0.00 0.00 79 1019.6
20260902235527 13 0.0 0.0 0.00 0.00 0.00 79 1019.6
20260902235025 13 0.0 0.0 0.00 0.00 0.00 79 1019.6
20260902234524 13 0.0 0.0 0.00 0.00 0.00 79 1019.7
20260902234022 13 0.0 0.0 0.00 0.00 0.00 78 1019.7
20260902233520 13 0.0 0.0 0.00 0.00 0.00 78 1019.8
20260902233049 13 0.0 0.0 0.00 0.00 0.00 78 1019.9
20260902233018 13 0.0 0.0 0.00 0.00 0.00 78 1019.9
20260902232516 13 0.0 0.0 0.00 0.00 0.00 78 1019.9
20260902232130 13 0.0 0.0 0.00 0.00 0.00 78 1019.8
20260902232035 13 0.0 0.0 0.00 0.00 0.00 78 1019.8
20260902231532 13 0.0 0.0 0.00 0.00 0.00 78 1019.8
20260902231031 13 0.0 0.0 0.00 0.00 0.00 78 1019.8
20260902230528 13 0.0 0.0 0.00 0.00 0.00 78 1019.8
20260902230027 13 0.0 0.0 0.00 0.00 0.00 78 1019.7
20260902225525 13 0.0 0.0 0.00 0.00 0.00 78 1019.8
20260902225023 13 0.0 0.0 0.00 0.00 0.00 78 1019.9
20260902224521 13 0.0 0.0 0.00 0.00 0.00 77 1019.9
20260902224020 13 0.0 0.0 0.00 0.00 0.00 77 1019.8
20260902223517 13 0.0 0.0 0.00 0.00 0.00 77 1019.9
20260902223048 14 0.0 0.0 0.00 0.00 0.00 77 1019.8
20260902223015 14 0.0 0.0 0.00 0.00 0.00 77 1019.8
20260902222534 14 0.0 0.0 0.00 0.00 0.00 77 1019.8
20260902222032 14 0.0 0.0 0.00 0.00 0.00 77 1020.0
20260902221530 14 0.0 0.0 0.00 0.00 0.00 77 1020.0
20260902221029 14 0.0 0.0 0.00 0.00 0.00 77 1020.1
20260902220526 14 0.0 0.0 0.00 0.00 0.00 77 1020.1
20260902220024 15 0.0 0.0 0.00 0.00 0.00 77 1020.0
20260902215522 15 0.0 0.0 0.00 0.00 0.00 77 1020.0
20260902215020 15 0.0 0.0 0.00 0.00 0.00 77 1020.1
20260902214518 15 0.0 0.0 0.00 0.00 0.00 77 1020.0